This is the latest recevied weather packets stored in our database for station/object K7ZQU-7. If no packets are shown the sender has not sent any weather packets the latest 10 day(s).
| Time | Temp. | Humidity | Pressure | Rain* | Wind** | Luminosity | Snow |
|---|---|---|---|---|---|---|---|
| 1777538037 | 3.33° C | 68% | 1019.1 hPa | 0 mm | 0 m/s | - | - |
| 1777537735 | 3.33° C | 67% | 1019.1 hPa | 0 mm | 0 m/s | - | - |
| 1777537436 | 3.89° C | 66% | 1019.2 hPa | 0 mm | 0 m/s | - | - |
| 1777537137 | 3.89° C | 65% | 1019.4 hPa | 0 mm | 0 m/s | - | - |
| 1777536837 | 4.44° C | 64% | 1019.4 hPa | 0 mm | 0.45 m/s, 100° | - | - |
| 1777536236 | 4.44° C | 63% | 1019.4 hPa | 0 mm | 0.45 m/s, 113° | - | - |
| 1777535940 | 4.44° C | 63% | 1019.4 hPa | 0 mm | 0 m/s | - | - |
| 1777535638 | 5° C | 62% | 1019.5 hPa | 0 mm | 0.45 m/s, 233° | - | - |
| 1777534738 | 5.56° C | 60% | 1019.5 hPa | 0 mm | 0.45 m/s, 131° | - | - |
| 1777534439 | 5.56° C | 60% | 1019.5 hPa | 0 mm | 0.45 m/s, 193° | - | - |
| 1777534139 | 5.56° C | 59% | 1019.5 hPa | 0 mm | 0.89 m/s, 193° | - | - |
| 1777533840 | 5.56° C | 59% | 1019.5 hPa | 0 mm | 1.34 m/s, 177° | - | - |
| 1777533541 | 5.56° C | 58% | 1019.6 hPa | 0 mm | 0 m/s | - | - |
| 1777533239 | 5.56° C | 58% | 1019.6 hPa | 0 mm | 0.45 m/s, 214° | - | - |
| 1777532940 | 5.56° C | 57% | 1019.6 hPa | 0 mm | 1.34 m/s, 215° | - | - |
| 1777532640 | 5.56° C | 57% | 1019.7 hPa | 0 mm | 0.89 m/s, 150° | - | - |
| 1777532341 | 5.56° C | 57% | 1019.7 hPa | 0 mm | 0.45 m/s, 105° | - | - |
| 1777532042 | 5.56° C | 56% | 1019.8 hPa | 0 mm | 0.89 m/s, 236° | - | - |
| 1777531740 | 5.56° C | 56% | 1019.8 hPa | 0 mm | 0 m/s | - | - |
| 1777531441 | 6.11° C | 55% | 1019.7 hPa | 0 mm | 0 m/s | - | - |
| 1777531142 | 6.11° C | 55% | 1019.8 hPa | 0 mm | 0.45 m/s, 153° | - | - |
| 1777530843 | 6.11° C | 55% | 1019.8 hPa | 0 mm | 0 m/s | - | - |
| 1777530544 | 6.11° C | 55% | 1019.8 hPa | 0 mm | 0.89 m/s, 141° | - | - |
| 1777530242 | 6.11° C | 54% | 1019.8 hPa | 0 mm | 0.45 m/s, 167° | - | - |
| 1777529944 | 6.67° C | 54% | 1019.8 hPa | 0 mm | 0.89 m/s, 122° | - | - |
* Rain latest hour (hover to see other rain measurements)
** Current wind speed in m/s (hover to see current wind gust speed)